Weather History for KLGD - April, 2013

Change the Weather History Date:

Tuesday, April 30, 2013

  Actual Average Record
Temperature  
Mean Temperature 40 °F -  
Max Temperature 50 °F 59 °F 81 °F (1981)
Min Temperature 30 °F 35 °F 22 °F (1972)
Degree Days  
Heating Degree Days 25    
Moisture  
Dew Point 20 °F    
Average Humidity 45    
Maximum Humidity 60    
Minimum Humidity 29    
Precipitation  
Precipitation 0.00 in - - ()
Sea Level Pressure  
Sea Level Pressure 30.15 in    
Wind  
Wind Speed 12 mph (NW)    
Max Wind Speed 21 mph    
Max Gust Speed 29 mph    
Visibility 10 miles    
Events      
Averages and records for this station are not official NWS values.
T = Trace of Precipitation, MM = Missing Value Source: NWS Daily Summary

Daily Weather History Graph

Daily Weather History Graph

Search for Another Location

Airport or City:

Trip Planner

Search our weather history database for the weather conditions in past years. The results will help you decide how hot, cold, wet, or windy it might be!

Date:

Astronomy

Apr. 30, 2013 Rise Set
Actual Time 5:41 AM PDT 7:57 PM PDT
Civil Twilight 5:09 AM PDT 8:30 PM PDT
Nautical Twilight 4:28 AM PDT 9:10 PM PDT
Astronomical Twilight 3:43 AM PDT 9:56 PM PDT
Moon 12:27 AM PDT (4/30) 10:13 AM PDT (4/30)
Length of Visible Light 15h 20m
Length of Day
14h 15m
Waning Gibbous, 69% of the Moon is Illuminated
Apr 30
Waning Gibbous
May 2
Last Quarter
May 9
New
May 17
First Quarter
May 24
Full

Hourly Weather History & Observations

Time (PDT) Temp. Windchill Dew Point Humidity Pressure Visibility Wind Dir Wind Speed Gust Speed Precip Events Conditions
12:15 AM 39.2 °F 32.5 °F 21.2 °F 49% 30.01 in 10.0 mi NW 10.4 mph - N/A   Mostly Cloudy
12:35 AM 39.2 °F 32.5 °F 21.2 °F 49% 30.01 in 10.0 mi NW 10.4 mph - N/A   Overcast
12:55 AM 39.2 °F 33.0 °F 21.2 °F 49% 30.02 in 10.0 mi NW 9.2 mph - N/A   Overcast
1:15 AM 39.2 °F 31.6 °F 21.2 °F 49% 30.02 in 10.0 mi WNW 12.7 mph - N/A   Overcast
1:35 AM 39.2 °F 31.6 °F 21.2 °F 49% 30.01 in 10.0 mi WNW 12.7 mph - N/A   Mostly Cloudy
1:55 AM 37.4 °F 30.3 °F 21.2 °F 52% 30.01 in 10.0 mi WNW 10.4 mph - N/A   Overcast
2:15 AM 37.4 °F 32.1 °F 19.4 °F 48% 30.02 in 10.0 mi NW 6.9 mph - N/A   Mostly Cloudy
2:35 AM 37.4 °F 30.8 °F 21.2 °F 52% 30.02 in 10.0 mi NNW 9.2 mph - N/A   Overcast
2:55 AM 37.4 °F 29.8 °F 19.4 °F 48% 30.03 in 10.0 mi NW 11.5 mph - N/A   Overcast
3:15 AM 37.4 °F 30.3 °F 19.4 °F 48% 30.03 in 10.0 mi NW 10.4 mph - N/A   Mostly Cloudy
3:35 AM 37.4 °F 28.9 °F 19.4 °F 48% 30.03 in 10.0 mi NW 13.8 mph 17.3 mph N/A   Scattered Clouds
3:55 AM 35.6 °F 28.0 °F 19.4 °F 52% 30.04 in 10.0 mi NW 10.4 mph - N/A   Partly Cloudy
4:15 AM 35.6 °F 28.0 °F 19.4 °F 52% 30.04 in 10.0 mi NNW 10.4 mph - N/A   Mostly Cloudy
4:35 AM 35.6 °F 28.0 °F 19.4 °F 52% 30.05 in 10.0 mi NNW 10.4 mph - N/A   Overcast
4:55 AM 35.6 °F 27.5 °F 19.4 °F 52% 30.05 in 10.0 mi NNW 11.5 mph - N/A   Overcast
5:15 AM 35.6 °F 26.2 °F 19.4 °F 52% 30.05 in 10.0 mi NNW 15.0 mph 19.6 mph N/A   Overcast
5:35 AM 35.6 °F 26.6 °F 19.4 °F 52% 30.06 in 10.0 mi NNW 13.8 mph - N/A   Overcast
5:55 AM 35.6 °F 26.6 °F 19.4 °F 52% 30.07 in 10.0 mi NW 13.8 mph 20.7 mph N/A   Overcast
6:15 AM 35.6 °F 26.6 °F 19.4 °F 52% 30.07 in 10.0 mi NNW 13.8 mph - N/A   Overcast
6:35 AM 35.6 °F 27.5 °F 19.4 °F 52% 30.08 in 10.0 mi NNW 11.5 mph - N/A   Overcast
6:55 AM 35.6 °F 27.1 °F 19.4 °F 52% 30.09 in 10.0 mi NNW 12.7 mph 16.1 mph N/A   Overcast
7:15 AM 35.6 °F 28.6 °F 19.4 °F 52% 30.10 in 10.0 mi NNW 9.2 mph - N/A   Overcast
7:35 AM 35.6 °F 27.5 °F 19.4 °F 52% 30.10 in 10.0 mi NNW 11.5 mph - N/A   Overcast
7:55 AM 37.4 °F 28.5 °F 21.2 °F 52% 30.11 in 10.0 mi NW 15.0 mph - N/A   Overcast
8:15 AM 37.4 °F 28.5 °F 19.4 °F 48% 30.11 in 10.0 mi NW 15.0 mph - N/A   Overcast
8:35 AM 37.4 °F 27.8 °F 21.2 °F 52% 30.12 in 10.0 mi WNW 17.3 mph - N/A   Overcast
8:55 AM 39.2 °F 31.2 °F 21.2 °F 49% 30.12 in 10.0 mi NW 13.8 mph 21.9 mph N/A   Overcast
9:15 AM 39.2 °F 31.6 °F 21.2 °F 49% 30.12 in 10.0 mi NW 12.7 mph 20.7 mph N/A   Overcast
9:35 AM 41.0 °F 34.7 °F 21.2 °F 45% 30.12 in 10.0 mi NNW 10.4 mph - N/A   Mostly Cloudy
9:55 AM 42.8 °F 35.8 °F 21.2 °F 42% 30.13 in 10.0 mi NW 13.8 mph 20.7 mph N/A   Overcast
10:15 AM 42.8 °F 34.3 °F 21.2 °F 42% 30.13 in 10.0 mi NNW 19.6 mph - N/A   Overcast
10:35 AM 39.2 °F 30.5 °F 21.2 °F 49% 30.14 in 10.0 mi NNW 16.1 mph 21.9 mph N/A   Overcast
10:55 AM 42.8 °F 35.4 °F 24.8 °F 49% 30.14 in 10.0 mi WNW 15.0 mph 23.0 mph N/A   Mostly Cloudy
11:15 AM 42.8 °F 35.8 °F 21.2 °F 42% 30.14 in 10.0 mi NW 13.8 mph - N/A   Overcast
11:35 AM 42.8 °F 36.2 °F 21.2 °F 42% 30.15 in 10.0 mi NW 12.7 mph - N/A   Overcast
11:55 AM 44.6 °F 38.1 °F 24.8 °F 46% 30.15 in 10.0 mi WNW 13.8 mph 19.6 mph N/A   Overcast
12:15 PM 44.6 °F 38.1 °F 23.0 °F 43% 30.15 in 10.0 mi WNW 13.8 mph - N/A   Mostly Cloudy
12:35 PM 44.6 °F 39.2 °F 21.2 °F 39% 30.14 in 10.0 mi West 10.4 mph 17.3 mph N/A   Mostly Cloudy
1:15 PM 44.6 °F 38.1 °F 21.2 °F 39% 30.14 in 10.0 mi West 13.8 mph 17.3 mph N/A   Overcast
1:35 PM 44.6 °F 37.4 °F 21.2 °F 39% 30.15 in 10.0 mi West 16.1 mph 21.9 mph N/A   Overcast
1:55 PM 44.6 °F 37.8 °F 21.2 °F 39% 30.16 in 10.0 mi West 15.0 mph 25.3 mph N/A   Overcast
2:15 PM 46.4 °F 38.7 °F 24.8 °F 43% 30.16 in 10.0 mi West 20.7 mph 28.8 mph N/A   Partly Cloudy
2:35 PM 46.4 °F 39.8 °F 24.8 °F 43% 30.17 in 10.0 mi WNW 16.1 mph 23.0 mph N/A   Clear
2:55 PM 46.4 °F 40.1 °F 21.2 °F 37% 30.17 in 10.0 mi NW 15.0 mph 20.7 mph N/A   Clear
3:15 PM 48.2 °F - 21.2 °F 34% 30.17 in 10.0 mi WNW 16.1 mph 21.9 mph N/A   Clear
3:35 PM 48.2 °F - 19.4 °F 32% 30.16 in 10.0 mi NW 19.6 mph 24.2 mph N/A   Scattered Clouds
3:55 PM 50.0 °F - 21.2 °F 32% 30.17 in 10.0 mi WNW 18.4 mph 23.0 mph N/A   Overcast
4:15 PM 46.4 °F 39.5 °F 17.6 °F 32% 30.17 in 10.0 mi NW 17.3 mph 23.0 mph N/A   Overcast
4:35 PM 48.2 °F - 19.4 °F 32% 30.17 in 10.0 mi NW 15.0 mph 24.2 mph N/A   Overcast
4:55 PM 46.4 °F 39.8 °F 15.8 °F 29% 30.18 in 10.0 mi NNW 16.1 mph 20.7 mph N/A   Mostly Cloudy
5:15 PM 46.4 °F 40.4 °F 17.6 °F 32% 30.19 in 10.0 mi WNW 13.8 mph - N/A   Mostly Cloudy
5:35 PM 46.4 °F 39.8 °F 17.6 °F 32% 30.20 in 10.0 mi NW 16.1 mph 21.9 mph N/A   Scattered Clouds
5:55 PM 46.4 °F 40.1 °F 17.6 °F 32% 30.21 in 10.0 mi NW 15.0 mph 23.0 mph N/A   Partly Cloudy
6:15 PM 46.4 °F 40.4 °F 17.6 °F 32% 30.21 in 10.0 mi NNW 13.8 mph - N/A   Partly Cloudy
6:35 PM 46.4 °F 39.5 °F 17.6 °F 32% 30.22 in 10.0 mi NNW 17.3 mph - N/A   Partly Cloudy
6:55 PM 44.6 °F 38.8 °F 17.6 °F 34% 30.23 in 10.0 mi North 11.5 mph - N/A   Clear
7:15 PM 44.6 °F 39.2 °F 17.6 °F 34% 30.23 in 10.0 mi NNW 10.4 mph - N/A   Clear
7:35 PM 42.8 °F 37.0 °F 17.6 °F 36% 30.25 in 10.0 mi NNE 10.4 mph - N/A   Clear
7:55 PM 39.2 °F 35.0 °F 19.4 °F 45% 30.25 in 10.0 mi North 5.8 mph - N/A   Clear
8:15 PM 37.4 °F 33.8 °F 19.4 °F 48% 30.26 in 10.0 mi North 4.6 mph - N/A   Clear
8:35 PM 37.4 °F 34.9 °F 21.2 °F 52% 30.27 in 10.0 mi NW 3.5 mph - N/A   Clear
8:55 PM 37.4 °F 34.9 °F 19.4 °F 48% 30.28 in 10.0 mi WNW 3.5 mph - N/A   Clear
9:15 PM 33.8 °F 29.6 °F 17.6 °F 52% 30.29 in 10.0 mi WSW 4.6 mph - N/A   Clear
9:35 PM 35.6 °F 32.8 °F 21.2 °F 56% 30.29 in 10.0 mi WSW 3.5 mph - N/A   Clear
10:15 PM 32.0 °F - 17.6 °F 55% 30.31 in 10.0 mi Calm Calm - N/A   Mostly Cloudy
10:35 PM 33.8 °F 30.8 °F 17.6 °F 52% 30.31 in 10.0 mi West 3.5 mph - N/A   Scattered Clouds
10:55 PM 32.0 °F 27.5 °F 19.4 °F 60% 30.32 in 10.0 mi WNW 4.6 mph - N/A   Partly Cloudy
11:15 PM 33.8 °F 27.7 °F 19.4 °F 56% 30.32 in 10.0 mi NW 6.9 mph - N/A   Clear
11:35 PM 30.2 °F - 15.8 °F 55% 30.33 in 10.0 mi Calm Calm - N/A   Clear
11:55 PM 33.8 °F 30.8 °F 19.4 °F 56% 30.34 in 10.0 mi SW 3.5 mph - N/A   Clear